Flag for Sierra Leone Weather past 2 weeks in Bo, Sierra Leone

Now
79 °F

Passing clouds.


Feels Like: 82 °F
Forecast: 73 / 94 °F
Wind: 2 mph from North

Location: Lungi

Current Time: Apr 21, 2015 at 5:48:12 AM

Latest Report: Apr 21, 2015 at 4:00 AM


Visibility: N/A

Pressure: 29.80 "Hg

Humidity: 84%

Dew point: 73 °F

Location of BoLocation

Historic Weather in Bo — Graph

°F

Bo temperature yesterday

Maximum temperature yesterday: 88 °F (at 12:00 PM)
Minimum temperature yesterday: 79 °F (at 7:00 AM)
Average temperature yesterday: 83 °F

Past Weeks' High & Low Weather Summary

 TemperatureHumidityPressure
High90 °F (Apr 11, 3:00 PM)94% (Apr 7, 7:00 AM)29.98 "Hg (Apr 7, 7:00 AM)
Low75 °F (Apr 7, 7:00 AM)62% (Apr 12, 3:00 PM)29.77 "Hg (Apr 7, 5:00 PM)
Average83 °F75%29.86 "Hg
* Reported Apr 6 9:00 AM — Apr 21 4:00 AM, Bo, Weather by CustomWeather, © 2015

Note: Actual official high and low records may vary slightly from our data, if they occured in-between our weather recording intervals... More about our weather records

Advertising

Bo weather history for previous 24 hours

 ConditionsComfort  
Time TempWeatherWind HumidityBarometerVisibility
4:00 AM
Tue, Apr 21
79 °FPassing clouds.2 mph84%29.80 "HgN/A
11:00 PM
Mon, Apr 20
81 °FPassing clouds.7 mph84%29.86 "HgN/A
10:00 PM81 °FPassing clouds.7 mph84%29.83 "HgN/A
9:00 PM81 °FPassing clouds.8 mph84%29.83 "HgN/A
8:00 PM81 °FPassing clouds.9 mph84%29.80 "HgN/A
6:00 PM82 °FScattered clouds.14 mph79%29.77 "HgN/A
5:00 PM84 °FScattered clouds.9 mph74%29.77 "HgN/A
4:00 PM86 °FPassing clouds.14 mph70%29.80 "HgN/A
3:00 PM88 °FPassing clouds.12 mph62%29.80 "HgN/A
2:00 PM88 °FPassing clouds.12 mph66%29.83 "HgN/A
1:00 PM88 °FScattered clouds.14 mph66%29.86 "HgN/A
12:00 PM88 °FScattered clouds.12 mph66%29.86 "HgN/A
11:00 AM82 °FPartly sunny.8 mph79%29.86 "HgN/A
10:00 AM81 °FPartly sunny.9 mph84%29.89 "HgN/A
9:00 AM79 °FPartly sunny.7 mph89%29.86 "HgN/A
8:00 AM79 °FPartly sunny.2 mph84%29.86 "HgN/A
7:00 AM79 °FPartly sunny.7 mph84%29.83 "HgN/A
Weather by CustomWeather, © 2015

See weather overviewHow to use our weather pages